| time (UTC) | temp C | wind direction | speed KPH | gust KPH | rain 1hr cm | rain 24hr cm | rain mn cm | humidity % | barometer mb |
| 20260502210129 | 15 | 0.0 | 0.0 | 0.05 | 0.41 | 0.41 | 88 | 1022.4 | |
| 20260502205628 | 16 | 0.0 | 0.0 | 0.03 | 0.38 | 0.38 | 87 | 1022.5 | |
| 20260502205126 | 16 | 0.0 | 0.0 | 0.03 | 0.38 | 0.38 | 85 | 1022.7 | |
| 20260502204624 | 16 | 0.0 | 0.0 | 0.00 | 0.36 | 0.36 | 84 | 1022.3 | |
| 20260502204123 | 16 | 0.0 | 0.0 | 0.00 | 0.36 | 0.36 | 83 | 1022.4 | |
| 20260502203621 | 16 | 0.0 | 0.0 | 0.00 | 0.36 | 0.36 | 84 | 1022.3 | |
| 20260502203119 | 16 | 0.0 | 0.0 | 0.00 | 0.36 | 0.36 | 84 | 1022.2 | |
| 20260502202617 | 16 | 0.0 | 0.0 | 0.00 | 0.36 | 0.36 | 85 | 1022.2 | |
| 20260502202116 | 16 | 0.0 | 0.0 | 0.00 | 0.36 | 0.36 | 85 | 1022.0 | |
| 20260502201614 | 16 | 0.0 | 0.0 | 0.00 | 0.36 | 0.36 | 85 | 1021.7 | |
| 20260502201112 | 16 | 0.0 | 0.0 | 0.00 | 0.36 | 0.36 | 84 | 1021.7 | |
| 20260502200611 | 16 | 0.0 | 0.0 | 0.00 | 0.36 | 0.36 | 84 | 1021.6 | |
| 20260502200109 | 16 | 0.0 | 0.0 | 0.00 | 0.36 | 0.36 | 84 | 1021.6 | |
| 20260502195607 | 17 | 0.0 | 0.0 | 0.00 | 0.36 | 0.36 | 84 | 1021.4 | |
| 20260502195105 | 17 | 0.0 | 0.0 | 0.00 | 0.36 | 0.36 | 84 | 1021.5 | |
| 20260502194603 | 17 | 0.0 | 0.0 | 0.00 | 0.36 | 0.36 | 84 | 1021.2 | |
| 20260502194102 | 17 | 0.0 | 0.0 | 0.00 | 0.36 | 0.36 | 84 | 1021.1 | |
| 20260502193600 | 17 | 0.0 | 0.0 | 0.00 | 0.36 | 0.36 | 84 | 1020.7 | |
| 20260502193058 | 17 | 0.0 | 0.0 | 0.00 | 0.36 | 0.36 | 82 | 1020.7 | |
| 20260502192556 | 17 | 0.0 | 0.0 | 0.00 | 0.36 | 0.36 | 82 | 1020.4 | |
| 20260502192055 | 17 | 0.0 | 0.0 | 0.00 | 0.36 | 0.36 | 82 | 1020.4 | |
| 20260502191553 | 17 | 0.0 | 0.0 | 0.00 | 0.36 | 0.36 | 81 | 1020.5 | |
| 20260502191052 | 17 | 0.0 | 0.0 | 0.00 | 0.36 | 0.36 | 81 | 1020.3 | |
| 20260502190550 | 18 | 0.0 | 0.0 | 0.00 | 0.36 | 0.36 | 81 | 1020.4 | |
| 20260502190049 | 17 | 0.0 | 0.0 | 0.00 | 0.36 | 0.36 | 81 | 1020.6 | |
| 20260502185547 | 17 | 0.0 | 0.0 | 0.00 | 0.36 | 0.36 | 80 | 1020.4 | |
| 20260502185045 | 17 | 0.0 | 0.0 | 0.00 | 0.36 | 0.36 | 79 | 1020.5 | |
| 20260502184543 | 17 | 0.0 | 0.0 | 0.00 | 0.36 | 0.36 | 79 | 1020.3 | |
| 20260502184042 | 17 | 0.0 | 0.0 | 0.00 | 0.36 | 0.36 | 78 | 1020.5 | |
| 20260502183540 | 17 | 0.0 | 0.0 | 0.00 | 0.36 | 0.36 | 78 | 1020.5 | |
| 20260502183038 | 17 | 0.0 | 0.0 | 0.00 | 0.36 | 0.36 | 77 | 1020.7 | |
| 20260502182536 | 18 | 0.0 | 0.0 | 0.00 | 0.36 | 0.36 | 75 | 1020.3 | |
| 20260502182034 | 18 | 0.0 | 0.0 | 0.00 | 0.36 | 0.36 | 74 | 1020.3 | |
| 20260502181532 | 18 | 0.0 | 0.0 | 0.00 | 0.36 | 0.36 | 75 | 1020.2 | |
| 20260502181030 | 18 | 0.0 | 0.0 | 0.00 | 0.36 | 0.36 | 75 | 1020.2 | |
| 20260502180528 | 18 | 0.0 | 0.0 | 0.00 | 0.36 | 0.36 | 76 | 1020.4 | |
| 20260502170508 | 16 | 0.0 | 0.0 | 0.00 | 0.36 | 0.36 | 88 | 1020.2 | |
| 20260502163958 | 16 | 0.0 | 0.0 | 0.00 | 0.36 | 0.36 | 90 | 1020.5 | |
| 20260502163457 | 16 | 0.0 | 0.0 | 0.00 | 0.36 | 0.36 | 90 | 1020.5 | |
| 20260502162955 | 16 | 0.0 | 0.0 | 0.00 | 0.36 | 0.36 | 90 | 1020.5 | |
| 20260502162453 | 16 | 0.0 | 0.0 | 0.00 | 0.36 | 0.36 | 92 | 1020.4 | |
| 20260502161952 | 16 | 0.0 | 0.0 | 0.00 | 0.36 | 0.36 | 92 | 1020.7 | |
| 20260502161450 | 16 | 0.0 | 0.0 | 0.00 | 0.36 | 0.36 | 93 | 1020.6 | |
| 20260502160948 | 16 | 0.0 | 0.0 | 0.00 | 0.36 | 0.36 | 93 | 1020.7 | |
| 20260502160447 | 16 | 0.0 | 0.0 | 0.00 | 0.36 | 0.36 | 93 | 1020.9 | |
| 20260502151931 | 15 | 0.0 | 0.0 | 0.05 | 0.36 | 0.36 | 95 | 1022.4 | |
| 20260502151429 | 15 | 0.0 | 0.0 | 0.05 | 0.36 | 0.36 | 95 | 1022.6 | |
| 20260502150927 | 15 | 0.0 | 0.0 | 0.05 | 0.36 | 0.36 | 94 | 1022.6 | |
| 20260502150425 | 15 | 0.0 | 0.0 | 0.05 | 0.36 | 0.36 | 94 | 1022.8 | |
| 20260502130342 | 19 | 0.0 | 0.0 | 0.03 | 0.03 | 0.03 | 90 | 1023.3 | |
| 20260502123330 | 20 | 0.0 | 0.0 | 0.03 | 0.03 | 0.03 | 86 | 1022.6 | |
| 20260502122828 | 20 | 0.0 | 0.0 | 0.00 | 0.00 | 0.00 | 86 | 1022.6 | |
| 20260502122326 | 20 | 0.0 | 0.0 | 0.00 | 0.00 | 0.00 | 85 | 1022.6 | |
| 20260502121824 | 20 | 0.0 | 0.0 | 0.00 | 0.00 | 0.00 | 84 | 1022.5 | |
| 20260502121321 | 20 | 0.0 | 0.0 | 0.00 | 0.00 | 0.00 | 84 | 1022.4 | |
| 20260502120819 | 20 | 0.0 | 0.0 | 0.00 | 0.00 | 0.00 | 85 | 1022.3 | |
| 20260502120317 | 20 | 0.0 | 0.0 | 0.00 | 0.00 | 0.00 | 85 | 1022.2 | |
| 20260502115815 | 20 | 0.0 | 0.0 | 0.00 | 0.00 | 0.00 | 84 | 1022.2 | |
| 20260502115314 | 20 | 0.0 | 0.0 | 0.00 | 0.00 | 0.00 | 86 | 1022.1 | |
| 20260502114812 | 20 | 0.0 | 0.0 | 0.00 | 0.00 | 0.00 | 86 | 1022.0 | |
| 20260502114310 | 20 | 0.0 | 0.0 | 0.00 | 0.00 | 0.00 | 91 | 1021.8 | |
| 20260502113808 | 18 | 0.0 | 0.0 | 0.00 | 0.00 | 0.00 | 95 | 1021.7 | |
| 20260502113306 | 17 | 0.0 | 0.0 | 0.00 | 0.00 | 0.00 | 97 | 1021.6 | |
| 20260502112805 | 17 | 0.0 | 0.0 | 0.00 | 0.00 | 0.00 | 98 | 1021.6 | |
| 20260502112305 | 17 | 0.0 | 0.0 | 0.00 | 0.00 | 0.00 | 98 | 1021.5 | |
| 20260502111801 | 17 | 0.0 | 0.0 | 0.00 | 0.00 | 0.00 | 99 | 1021.4 | |
| 20260502111300 | 16 | 0.0 | 0.0 | 0.00 | 0.00 | 0.00 | 99 | 1021.3 | |
| 20260502110758 | 16 | 0.0 | 0.0 | 0.00 | 0.00 | 0.00 | 99 | 1021.1 | |
| 20260502110256 | 16 | 0.0 | 0.0 | 0.00 | 0.00 | 0.00 | 99 | 1020.9 | |
| 20260502105755 | 16 | 0.0 | 0.0 | 0.00 | 0.00 | 0.00 | 99 | 1020.9 | |
| 20260502105253 | 15 | 0.0 | 0.0 | 0.00 | 0.00 | 0.00 | 99 | 1020.8 | |
| 20260502104751 | 15 | 0.0 | 0.0 | 0.00 | 0.00 | 0.00 | 99 | 1020.7 | |
| 20260502104250 | 15 | 0.0 | 0.0 | 0.00 | 0.00 | 0.00 | 99 | 1020.6 | |
| 20260502103748 | 15 | 0.0 | 0.0 | 0.00 | 0.00 | 0.00 | 99 | 1020.5 | |
| 20260502103246 | 15 | 0.0 | 0.0 | 0.00 | 0.00 | 0.00 | 99 | 1020.3 | |
| 20260502102745 | 14 | 0.0 | 0.0 | 0.00 | 0.00 | 0.00 | 99 | 1020.3 | |
| 20260502102243 | 14 | 0.0 | 0.0 | 0.00 | 0.00 | 0.00 | 99 | 1020.2 | |
| 20260502101741 | 14 | 0.0 | 0.0 | 0.00 | 0.00 | 0.00 | 99 | 1020.1 | |
| 20260502101240 | 14 | 0.0 | 0.0 | 0.00 | 0.00 | 0.00 | 99 | 1020.1 | |
| 20260502100738 | 14 | 0.0 | 0.0 | 0.00 | 0.00 | 0.00 | 99 | 1020.0 | |
| 20260502100237 | 14 | 0.0 | 0.0 | 0.00 | 0.00 | 0.00 | 99 | 1019.9 | |
| 20260502091220 | 13 | 0.0 | 0.0 | 0.00 | 0.00 | 0.00 | 99 | 1019.2 | |
| 20260502090719 | 13 | 0.0 | 0.0 | 0.00 | 0.00 | 0.00 | 99 | 1019.1 | |
| 20260502090218 | 13 | 0.0 | 0.0 | 0.00 | 0.00 | 0.00 | 99 | 1019.1 | |
| 20260502071142 | 13 | 0.0 | 0.0 | 0.00 | 0.00 | 0.00 | 99 | 1018.6 | |
| 20260502070640 | 13 | 0.0 | 0.0 | 0.00 | 0.00 | 0.00 | 99 | 1018.5 | |
| 20260502070139 | 13 | 0.0 | 0.0 | 0.00 | 0.00 | 0.00 | 99 | 1018.5 | |
| 20260502065637 | 13 | 0.0 | 0.0 | 0.00 | 0.00 | 0.00 | 99 | 1018.6 | |
| 20260502065136 | 13 | 0.0 | 0.0 | 0.00 | 0.00 | 0.00 | 99 | 1018.7 | |
| 20260502064634 | 13 | 0.0 | 0.0 | 0.00 | 0.00 | 0.00 | 99 | 1018.7 | |
| 20260502064133 | 13 | 0.0 | 0.0 | 0.00 | 0.00 | 0.00 | 99 | 1018.7 | |
| 20260502063631 | 14 | 0.0 | 0.0 | 0.00 | 0.00 | 0.00 | 99 | 1018.8 | |
| 20260502063129 | 14 | 0.0 | 0.0 | 0.00 | 0.00 | 0.00 | 99 | 1018.9 | |
| 20260502062628 | 14 | 0.0 | 0.0 | 0.00 | 0.00 | 0.00 | 99 | 1018.9 | |
| 20260502062127 | 14 | 0.0 | 0.0 | 0.00 | 0.00 | 0.00 | 99 | 1018.8 | |
| 20260502061626 | 14 | 0.0 | 0.0 | 0.00 | 0.00 | 0.00 | 99 | 1018.6 | |
| 20260502061124 | 14 | 0.0 | 0.0 | 0.00 | 0.00 | 0.00 | 99 | 1018.6 | |
| 20260502060623 | 14 | 0.0 | 0.0 | 0.00 | 0.00 | 0.00 | 99 | 1018.6 | |
| 20260502060121 | 14 | 0.0 | 0.0 | 0.00 | 0.00 | 0.00 | 99 | 1018.6 | |
| 20260502055620 | 14 | 0.0 | 0.0 | 0.00 | 0.00 | 0.00 | 99 | 1018.6 | |
| 20260502055118 | 14 | 0.0 | 0.0 | 0.00 | 0.00 | 0.00 | 99 | 1018.5 | |
| 20260502054616 | 14 | 0.0 | 0.0 | 0.00 | 0.00 | 0.00 | 99 | 1018.6 | |
| 20260502054115 | 14 | 0.0 | 0.0 | 0.00 | 0.00 | 0.00 | 99 | 1018.7 | |
| 20260502053613 | 14 | 0.0 | 0.0 | 0.00 | 0.00 | 0.00 | 99 | 1018.6 | |
| 20260502053111 | 14 | 0.0 | 0.0 | 0.00 | 0.00 | 0.00 | 99 | 1018.7 | |
| 20260502052609 | 14 | 0.0 | 0.0 | 0.00 | 0.00 | 0.00 | 99 | 1018.8 | |
| 20260502052108 | 14 | 0.0 | 0.0 | 0.00 | 0.00 | 0.00 | 99 | 1018.9 | |
| 20260502051607 | 14 | 0.0 | 0.0 | 0.00 | 0.00 | 0.00 | 99 | 1019.0 | |
| 20260502051105 | 14 | 0.0 | 0.0 | 0.00 | 0.00 | 0.00 | 99 | 1019.1 | |
| 20260502050603 | 14 | 0.0 | 0.0 | 0.00 | 0.00 | 0.00 | 99 | 1019.2 | |
| 20260502050101 | 14 | 0.0 | 0.0 | 0.00 | 0.00 | 0.00 | 99 | 1019.2 | |
| 20260502045600 | 14 | 0.0 | 0.0 | 0.00 | 0.00 | 0.00 | 99 | 1019.3 | |
| 20260502045058 | 15 | 0.0 | 0.0 | 0.00 | 0.00 | 0.00 | 99 | 1019.3 | |
| 20260502044556 | 15 | 0.0 | 0.0 | 0.00 | 0.00 | 0.00 | 99 | 1019.4 | |
| 20260502044055 | 15 | 0.0 | 0.0 | 0.00 | 0.00 | 0.00 | 99 | 1019.5 | |
| 20260502043553 | 15 | 0.0 | 0.0 | 0.00 | 0.00 | 0.00 | 99 | 1019.6 | |
| 20260502043052 | 15 | 0.0 | 0.0 | 0.00 | 0.00 | 0.00 | 99 | 1019.6 | |
| 20260502042550 | 15 | 0.0 | 0.0 | 0.00 | 0.00 | 0.00 | 99 | 1019.6 | |
| 20260502042048 | 15 | 0.0 | 0.0 | 0.00 | 0.00 | 0.00 | 99 | 1019.5 | |
| 20260502041546 | 15 | 0.0 | 0.0 | 0.00 | 0.00 | 0.00 | 99 | 1019.4 | |
| 20260502041044 | 15 | 0.0 | 0.0 | 0.00 | 0.00 | 0.00 | 99 | 1019.4 | |
| 20260502040543 | 15 | 0.0 | 0.0 | 0.00 | 0.00 | 0.00 | 99 | 1019.4 | |
| 20260502040041 | 15 | 0.0 | 0.0 | 0.00 | 0.00 | 0.00 | 99 | 1019.3 | |
| 20260502035540 | 15 | 0.0 | 0.0 | 0.00 | 0.00 | 0.00 | 99 | 1019.4 | |
| 20260502035038 | 15 | 0.0 | 0.0 | 0.00 | 0.00 | 0.00 | 99 | 1019.3 | |
| 20260502034536 | 15 | 0.0 | 0.0 | 0.00 | 0.00 | 0.00 | 99 | 1019.4 | |
| 20260502034035 | 15 | 0.0 | 0.0 | 0.00 | 0.00 | 0.00 | 99 | 1019.4 | |
| 20260502033533 | 16 | 0.0 | 0.0 | 0.00 | 0.00 | 0.00 | 99 | 1019.3 | |
| 20260502033031 | 16 | 0.0 | 0.0 | 0.00 | 0.00 | 0.00 | 99 | 1019.4 | |
| 20260502032530 | 16 | 0.0 | 0.0 | 0.00 | 0.00 | 0.00 | 99 | 1019.4 | |
| 20260502032029 | 16 | 0.0 | 0.0 | 0.00 | 0.00 | 0.00 | 98 | 1019.5 | |
| 20260502031527 | 16 | 0.0 | 0.0 | 0.00 | 0.00 | 0.00 | 98 | 1019.5 | |
| 20260502031026 | 16 | 0.0 | 0.0 | 0.00 | 0.00 | 0.00 | 98 | 1019.6 | |
| 20260502030524 | 16 | 0.0 | 0.0 | 0.00 | 0.00 | 0.00 | 98 | 1019.7 | |
| 20260502030022 | 16 | 0.0 | 0.0 | 0.00 | 0.00 | 0.00 | 98 | 1019.7 | |
| 20260502025520 | 16 | 0.0 | 0.0 | 0.00 | 0.00 | 0.00 | 98 | 1019.7 | |
| 20260502025019 | 16 | 0.0 | 0.0 | 0.00 | 0.00 | 0.00 | 98 | 1019.8 | |
| 20260502024517 | 16 | 0.0 | 0.0 | 0.00 | 0.00 | 0.00 | 98 | 1019.8 | |
| 20260502024015 | 16 | 0.0 | 0.0 | 0.00 | 0.00 | 0.00 | 98 | 1019.9 | |
| 20260502023513 | 16 | 0.0 | 0.0 | 0.00 | 0.00 | 0.00 | 98 | 1019.9 | |
| 20260502023011 | 16 | 0.0 | 0.0 | 0.00 | 0.00 | 0.00 | 98 | 1019.9 | |
| 20260502022510 | 16 | 0.0 | 0.0 | 0.00 | 0.00 | 0.00 | 98 | 1019.9 | |
| 20260502022008 | 16 | 0.0 | 0.0 | 0.00 | 0.00 | 0.00 | 98 | 1019.9 | |
| 20260502021506 | 17 | 0.0 | 0.0 | 0.00 | 0.00 | 0.00 | 98 | 1019.8 | |
| 20260502021005 | 16 | 0.0 | 0.0 | 0.00 | 0.00 | 0.00 | 98 | 1019.8 | |
| 20260502020503 | 16 | 0.0 | 0.0 | 0.00 | 0.00 | 0.00 | 98 | 1019.8 | |
| 20260502020001 | 17 | 0.0 | 0.0 | 0.00 | 0.00 | 0.00 | 98 | 1019.8 | |
| 20260502015459 | 17 | 0.0 | 0.0 | 0.00 | 0.00 | 0.00 | 98 | 1019.9 | |
| 20260502014958 | 17 | 0.0 | 0.0 | 0.00 | 0.00 | 0.00 | 97 | 1019.8 | |
| 20260502014455 | 17 | 0.0 | 0.0 | 0.00 | 0.00 | 0.00 | 97 | 1019.7 | |
| 20260502013954 | 17 | 0.0 | 0.0 | 0.00 | 0.00 | 0.00 | 97 | 1019.7 | |
| 20260502013452 | 17 | 0.0 | 0.0 | 0.00 | 0.00 | 0.00 | 97 | 1019.8 | |
| 20260502012950 | 17 | 0.0 | 0.0 | 0.00 | 0.00 | 0.00 | 97 | 1019.7 | |
| 20260502012447 | 17 | 0.0 | 0.0 | 0.00 | 0.00 | 0.00 | 97 | 1019.8 | |
| 20260502011945 | 17 | 0.0 | 0.0 | 0.00 | 0.00 | 0.00 | 97 | 1019.8 | |
| 20260502011444 | 17 | 0.0 | 0.0 | 0.00 | 0.00 | 0.00 | 97 | 1019.8 | |
| 20260502010941 | 17 | 0.0 | 0.0 | 0.00 | 0.00 | 0.00 | 97 | 1019.9 | |
| 20260502010439 | 17 | 0.0 | 0.0 | 0.00 | 0.00 | 0.00 | 97 | 1019.9 | |
| 20260502005937 | 17 | 0.0 | 0.0 | 0.00 | 0.00 | 0.00 | 97 | 1019.9 | |
| 20260502005435 | 17 | 0.0 | 0.0 | 0.00 | 0.00 | 0.00 | 96 | 1019.9 | |
| 20260502004933 | 17 | 0.0 | 0.0 | 0.00 | 0.00 | 0.00 | 96 | 1019.9 | |
| 20260502004431 | 17 | 0.0 | 0.0 | 0.00 | 0.00 | 0.00 | 96 | 1019.9 | |
| 20260502003929 | 17 | 0.0 | 0.0 | 0.00 | 0.00 | 0.00 | 96 | 1020.0 | |
| 20260502003427 | 17 | 0.0 | 0.0 | 0.00 | 0.00 | 0.00 | 96 | 1020.0 | |
| 20260502002924 | 17 | 0.0 | 0.0 | 0.00 | 0.00 | 0.00 | 96 | 1020.1 | |
| 20260502002422 | 17 | 0.0 | 0.0 | 0.00 | 0.00 | 0.00 | 95 | 1020.2 | |
| 20260502001920 | 17 | 0.0 | 0.0 | 0.00 | 0.00 | 0.00 | 95 | 1020.2 | |
| 20260502001417 | 17 | 0.0 | 0.0 | 0.00 | 0.00 | 0.00 | 95 | 1020.2 | |
| 20260502000915 | 17 | 0.0 | 0.0 | 0.00 | 0.00 | 0.00 | 94 | 1020.3 | |
| 20260502000413 | 17 | 0.0 | 0.0 | 0.00 | 0.00 | 0.00 | 94 | 1020.3 | |
| 20260501235912 | 17 | 0.0 | 0.0 | 0.00 | 0.00 | 0.00 | 94 | 1020.3 | |
| 20260501235409 | 17 | 0.0 | 0.0 | 0.00 | 0.00 | 0.00 | 93 | 1020.3 | |
| 20260501234907 | 17 | 0.0 | 0.0 | 0.00 | 0.00 | 0.00 | 93 | 1020.4 | |
| 20260501234405 | 17 | 0.0 | 0.0 | 0.00 | 0.00 | 0.00 | 93 | 1020.3 | |
| 20260501233903 | 17 | 0.0 | 0.0 | 0.00 | 0.00 | 0.00 | 93 | 1020.4 | |
| 20260501233401 | 17 | 0.0 | 0.0 | 0.00 | 0.00 | 0.00 | 93 | 1020.3 | |
| 20260501232859 | 17 | 0.0 | 0.0 | 0.00 | 0.00 | 0.00 | 93 | 1020.3 | |
| 20260501232358 | 17 | 0.0 | 0.0 | 0.00 | 0.00 | 0.00 | 92 | 1020.3 | |
| 20260501231855 | 17 | 0.0 | 0.0 | 0.00 | 0.00 | 0.00 | 92 | 1020.3 | |
| 20260501231353 | 17 | 0.0 | 0.0 | 0.00 | 0.00 | 0.00 | 92 | 1020.3 | |
| 20260501230851 | 17 | 0.0 | 0.0 | 0.00 | 0.00 | 0.00 | 91 | 1020.3 | |
| 20260501230350 | 17 | 0.0 | 0.0 | 0.00 | 0.00 | 0.00 | 91 | 1020.4 | |
| 20260501225848 | 17 | 0.0 | 0.0 | 0.00 | 0.00 | 0.00 | 91 | 1020.3 | |
| 20260501225346 | 17 | 0.0 | 0.0 | 0.00 | 0.00 | 0.00 | 90 | 1020.3 | |
| 20260501224844 | 17 | 0.0 | 0.0 | 0.00 | 0.00 | 0.00 | 90 | 1020.2 | |
| 20260501224343 | 17 | 0.0 | 0.0 | 0.00 | 0.00 | 0.00 | 90 | 1020.2 | |
| 20260501223841 | 17 | 0.0 | 0.0 | 0.00 | 0.00 | 0.00 | 89 | 1020.2 | |
| 20260501223339 | 17 | 0.0 | 0.0 | 0.00 | 0.00 | 0.00 | 89 | 1020.1 | |
| 20260501222837 | 18 | 0.0 | 0.0 | 0.00 | 0.00 | 0.00 | 88 | 1020.1 | |
| 20260501222335 | 18 | 0.0 | 0.0 | 0.00 | 0.00 | 0.00 | 88 | 1020.0 | |
| 20260501221833 | 18 | 0.0 | 0.0 | 0.00 | 0.00 | 0.00 | 88 | 1020.0 | |
| 20260501221331 | 18 | 0.0 | 0.0 | 0.00 | 0.00 | 0.00 | 87 | 1019.9 | |
| 20260501220829 | 18 | 0.0 | 0.0 | 0.00 | 0.00 | 0.00 | 87 | 1019.9 | |
| 20260501220328 | 18 | 0.0 | 0.0 | 0.00 | 0.00 | 0.00 | 86 | 1019.9 | |
| 20260501215826 | 18 | 0.0 | 0.0 | 0.00 | 0.00 | 0.00 | 86 | 1019.9 | |
| 20260501215324 | 18 | 0.0 | 0.0 | 0.00 | 0.00 | 0.00 | 86 | 1019.9 | |
| 20260501214822 | 18 | 0.0 | 0.0 | 0.00 | 0.00 | 0.00 | 85 | 1019.9 | |
| 20260501214320 | 18 | 0.0 | 0.0 | 0.00 | 0.00 | 0.00 | 84 | 1019.8 | |
| 20260501213818 | 19 | 0.0 | 0.0 | 0.00 | 0.00 | 0.00 | 83 | 1019.8 | |
| 20260501213316 | 19 | 0.0 | 0.0 | 0.00 | 0.00 | 0.00 | 81 | 1019.7 | |
| 20260501212814 | 19 | 0.0 | 0.0 | 0.00 | 0.00 | 0.00 | 80 | 1019.7 | |
| 20260501212313 | 20 | 0.0 | 0.0 | 0.00 | 0.00 | 0.00 | 79 | 1019.6 | |
| 20260501211811 | 20 | 0.0 | 0.0 | 0.00 | 0.00 | 0.00 | 77 | 1019.7 | |
| 20260501211309 | 20 | 0.0 | 0.0 | 0.00 | 0.00 | 0.00 | 75 | 1019.7 | |
| 20260501210807 | 20 | 0.0 | 0.0 | 0.00 | 0.00 | 0.00 | 74 | 1019.6 |